Location: Strawberry
(45.6646°N, 111.9596°W)
Time: 21:35:01
(UTC+00:00)

Courier 1B Rocket - Pass Details

Date: 05 October 2022
Orbit: 920 x 1202 km, 28.3° (Epoch: 03 December)

Event Time Altitude Azimuth Distance (km) Brightness Sun altitude
Rises 01:25:03 0° 216° (SW) 3,819 8.7 -4.8°
Reaches altitude 10° 01:29:44 10° 189° (S) 2,794 7.5 -5.7°
Maximum altitude 01:32:19 12° 166° (SSE) 2,582 7.1 -6.1°
Drops below altitude 10° 01:34:52 10° 143° (SE) 2,722 7.0 -6.6°
Enters shadow 01:38:01 - 121° (ESE) 3,302 7.2 -7.1°
Sets 01:39:16 0° 115° (ESE) 3,617 - -7.3°
